Content
SEND FEEDBACK

Daily
Averages
Monthly
Summary
United States of America

MARBLE HILL, MISSOURI


Home > North America > United States > Missouri
Elevation: 535 feet     Latitude: 37 17N     Longitude: 089 58W

WEATHER
 
SELECT A DAY
Number of Records: 207,716;   Date Range: 1/1/95 - 7/29/14
 
SHARE

PRINT THIS DATA

[ ← Previous Day ]
WEATHER ALMANAC - JANUARY 9, 2013
[ Next Day → ]
[ °C ]   °F
Weather ElementAverageHighLow
Temperature48.4 °F57 °F (12:53 pm)42.1 °F (1:53 am)
Dewpoint41.7 °F46.4 °F (11:53 am)37.9 °F (11:53 pm)
Humidity78.6 %93 % (5:53 am)57 % (1:53 pm)
Barometer30.37 in30.44 in (8:53 pm)30.25 in (2:53 am)
Wind Speed4.9 mph10.4 mph (1:53 pm)
Weather ElementAverage
Visibility8.4 mi
Wind DirectionNNE (36.8 °)

Weather ElementTotal
Precipitation---
Heating Degree Days15.5 (Base 65)
Averaged from 25 records on January 9, 2013
WEATHER CONDITIONS BREAKOUT
WIND DIRECTION BREAKOUT
WEATHER BY HOUR - JANUARY 9, 2013
[ °C ]   °F
Local TimeTemperatureDewpointHumidityBarometerVisibilityWind DirectionWind SpeedGust SpeedPrecipitationEventsConditions
1:53 AM42.1 °F39.0 °F89 %30.26 in7.0 miSSE (150°)3.5 mphOvercast
2:53 AM42.1 °F39.9 °F92 %30.25 in6.0 miCalm0.00 inMostly Cloudy
3:53 AM42.1 °F39.9 °F92 %30.27 in4.0 miCalmOvercast
4:53 AM42.1 °F39.9 °F92 %30.30 in4.0 miCalmOvercast
5:53 AM43.0 °F41.0 °F93 %30.31 in5.0 miEast (100°)3.5 mphOvercast
6:17 AM42.8 °F41.0 °F93 %30.31 in8.0 miENE (70°)4.6 mphOvercast
6:53 AM44.1 °F41.0 °F89 %30.34 in8.0 miCalmOvercast
7:06 AM44.6 °F42.8 °F93 %30.34 in7.0 miCalmOvercast
7:53 AM43.0 °F41.0 °F93 %30.36 in5.0 miCalmOvercast
8:53 AM46.0 °F43.0 °F89 %30.41 in6.0 miCalmOvercast
9:53 AM48.9 °F44.1 °F83 %30.41 in9.0 miCalmMostly Cloudy
10:53 AM54.0 °F45.0 °F72 %30.39 in10.0 miCalmClear
11:53 AM55.4 °F46.4 °F72 %30.37 in10.0 miNE (50°)5.8 mphClear
12:53 PM57.0 °F44.1 °F62 %30.36 in10.0 miENE (60°)8.1 mphClear
1:53 PM57.0 °F42.1 °F57 %30.36 in10.0 miNNE (30°)10.4 mphClear
2:53 PM57.0 °F43.0 °F59 %30.37 in10.0 miENE (60°)9.2 mphClear
3:53 PM55.9 °F44.1 °F64 %30.37 in10.0 miNNE (30°)9.2 mphClear
4:53 PM53.1 °F41.0 °F64 %30.39 in10.0 miNE (50°)9.2 mphClear
5:53 PM50.0 °F41.0 °F71 %30.41 in10.0 miNE (40°)8.1 mphClear
6:53 PM48.9 °F41.0 °F74 %30.43 in10.0 miNE (40°)8.1 mphClear
7:53 PM48.0 °F41.0 °F77 %30.43 in10.0 miNE (50°)6.9 mphClear
8:53 PM48.0 °F42.1 °F80 %30.44 in10.0 miNE (50°)8.1 mphClear
9:53 PM48.0 °F41.0 °F77 %30.43 in10.0 miNE (40°)10.4 mphClear
10:53 PM48.0 °F39.0 °F71 %30.43 in10.0 miNE (50°)10.4 mphClear
11:53 PM48.0 °F37.9 °F68 %30.43 in10.0 miNE (50°)8.1 mphOvercast
Hourly data recorded from KCGI, located miles away from Marble Hill, Missouri







STORIES FROM OUR PARTNERS